SCP
0 5 6 3 6 5 5 3 4 4 3 1 0 0 0 0 0 0 0 0 0 0 0 0 0 0 0 0 0 0 0 0
5 2 0 0 0 2 3 3 3 1 0 0 0 0 0 0 0 0 0 0 0 0 0 0 0 0 0 0 0 0 0 0
6 3 0 0 0 0 0 0 0 0 0 0 -0 0 0 0 0 0 0 0 0 0 0 0 0 0 0 0 0 0 0 0
3 2 1 0 0 0 0 0 0 0 -0 -0 0 0 0 -0 0 0 0 0 0 0 0 0 0 0 0 0 0 0 0 0
2 0 0 0 0 0 0 0 0 -0 -0 0 0 0 -0 0 0 -0 -0 0 0 0 0 0 0 0 0 0 0 0 0 0
0 0 0 0 0 0 0 0 0 0 0 0 0 -0 -0 -0 -0 -0 0 0 0 0 0 0 0 0 0 0 0 0 0 0
0 0 0 0 0 0 0 0 0 0 0 -0 -0 -0 -0 -0 -0 -0 0 0 0 0 0 0 0 0 0 0 0 0 0 0
0 0 0 0 0 0 0 0 0 0 -0 -0 -0 -0 -0 -0 -0 0 0 0 0 0 0 0 0 0 0 0 0 0 0 0
0 0 0 0 0 0 0 0 0 -0 -0 -0 -0 -0 -0 -0 0 0 0 0 0 0 0 0 0 0 0 0 0 0 0 0
0 0 0 0 0 0 0 0 0 -0 -0 -0 -0 -0 -0 0 0 0 0 0 0 0 0 0 0 0 0 0 0 0 0 0
0 0 0 0 0 0 0 0 -0 -0 -0 -0 -0 -0 -0 0 0 0 0 0 0 0 0 0 0 0 0 0 0 0 0 0
0 0 0 0 0 0 0 0 0 -0 -0 -0 -0 -0 0 0 0 0 0 0 0 0 0 0 0 0 0 0 0 0 0 0
0 0 0 0 0 0 0 0 -0 -0 -0 0 0 0 0 0 0 0 0 0 0 0 0 0 0 0 0 0 0 0 0 0
0 0 0 0 0 0 0 0 0 -0 0 0 0 0 0 0 0 0 -0 -0 -0 -0 0 0 0 0 0 0 0 0 0 0
0 0 0 0 0 0 0 0 0 0 0 0 0 0 0 0 0 0 -0 0 0 0 0 0 0 0 0 0 0 -0 0 0
0 0 0 0 0 0 0 0 0 0 0 0 -0 -0 0 -0 -0 -0 0 0 0 0 -0 0 -0 -0 0 0 0 0 0 0
0 0 0 0 0 0 0 0 0 0 0 0 0 0 -0 -0 -0 -0 0 0 0 0 0 0 -0 -0 -0 0 0 0 0 0
0 0 0 0 0 0 0 0 0 0 0 -0 -0 -0 -0 -0 -0 0 0 0 0 0 0 0 0 0 0 0 0 0 0 0
0 0 0 0 0 0 0 0 0 0 0 0 -0 -0 -0 -0 0 0 0 0 0 0 0 0 0 0 0 0 0 0 0 0
0 0 0 0 0 0 0 0 0 0 0 -0 -0 -0 -0 0 0 0 0 0 0 0 0 0 0 0 0 0 0 0 0 0
Wind_Speed_500mb
80 76 95 97 102 111 112 105 105 97 99 91 82 68 68 62 57 54 50 43 34 27 23 23 23 24 24 24 21 21 21 20
79 90 86 91 55 86 96 93 114 112 106 94 74 71 67 65 64 56 48 40 33 30 26 19 15 15 17 19 23 24 23 26
81 89 83 77 37 90 104 79 100 110 108 98 87 75 71 68 60 53 46 37 31 26 22 23 24 20 21 19 22 21 21 22
91 90 79 72 94 87 106 122 94 83 89 84 83 79 74 64 58 52 44 40 33 25 26 28 26 27 26 23 19 21 19 20
87 87 99 101 95 97 95 96 100 93 90 85 77 74 69 60 55 48 42 37 30 31 35 30 27 25 22 20 18 22 20 26
92 93 102 106 97 97 103 95 92 85 82 82 78 71 64 56 50 47 44 39 33 33 33 28 22 19 18 20 24 23 20 20
93 96 97 95 92 94 89 86 86 86 82 78 71 61 58 54 50 45 40 40 36 34 30 25 22 20 17 15 14 8 18 23
102 101 98 100 90 92 93 88 84 80 77 74 67 62 58 55 50 45 40 38 37 33 30 24 20 20 18 19 21 23 20 20
107 110 104 93 88 92 92 86 82 81 81 75 68 61 57 54 55 49 41 38 35 32 28 25 22 21 20 22 25 26 24 23
111 115 96 86 88 95 92 88 85 82 77 70 66 61 59 54 51 46 42 39 39 38 32 24 22 24 23 25 25 25 25 27
102 106 92 84 84 88 93 85 83 81 80 76 69 63 60 56 53 47 41 33 34 29 22 15 24 28 26 26 29 29 28 36
98 99 94 89 83 82 84 84 85 85 83 79 73 71 64 54 48 45 46 41 34 33 25 13 23 27 32 34 34 36 36 38
91 93 92 88 85 82 78 85 85 86 77 73 67 60 51 49 49 45 34 29 19 19 21 20 26 31 37 40 38 38 34 33
88 90 91 85 84 80 80 80 74 70 70 63 56 51 46 48 47 44 36 35 29 29 28 28 33 34 33 36 40 33 37 31
83 84 82 84 81 75 72 67 65 64 68 65 63 61 58 55 50 46 50 49 45 41 40 41 37 34 33 35 37 36 37 41
80 81 83 83 81 74 65 61 64 67 66 60 57 53 50 48 46 44 38 38 46 48 48 47 47 43 35 33 28 29 42 49
80 80 78 79 81 76 68 74 72 66 59 57 53 51 48 47 44 41 38 35 31 32 35 39 38 38 37 38 36 42 43 47
77 79 75 77 76 71 72 63 63 62 58 52 51 52 48 45 41 38 35 31 28 26 24 27 28 22 32 35 41 41 42 42
77 78 76 73 70 62 59 59 55 62 63 54 50 47 46 42 39 36 32 32 33 33 36 33 29 27 31 34 36 39 41 41
77 75 68 63 61 60 64 59 57 58 56 50 47 47 45 42 40 37 34 32 28 27 29 32 28 31 31 33 33 34 35 36
Wind_Direction_500mb
171 158 161 173 170 173 172 168 155 153 155 155 157 158 165 159 143 136 134 132 127 119 104 93 80 70 58 56 56 56 31 28
131 133 152 155 206 173 169 152 145 151 152 156 153 155 150 145 135 132 128 123 119 114 116 111 103 95 89 84 48 45 42 38
124 135 154 139 118 124 122 130 142 144 140 145 142 146 138 130 127 127 123 119 114 111 104 99 94 92 85 82 72 52 39 38
124 131 137 138 140 134 134 144 151 152 147 141 136 137 131 125 127 123 120 118 116 116 104 100 96 83 71 59 52 57 24 23
124 127 135 138 130 134 136 133 143 141 140 133 131 127 123 125 124 123 121 119 119 103 101 98 88 78 66 55 51 54 15 12
122 132 132 132 129 127 128 131 133 132 126 121 118 122 123 124 124 118 115 112 106 103 102 96 86 75 64 60 57 26 1 16
126 138 138 138 130 126 124 118 116 116 116 118 121 125 123 120 116 115 114 114 111 109 102 94 76 69 54 41 24 19 8 17
124 129 132 128 122 124 118 116 115 115 116 116 118 124 122 117 115 112 110 108 106 101 92 77 67 53 36 20 7 7 15 39
122 124 122 122 123 121 117 118 117 119 120 122 122 122 120 117 116 117 120 112 103 89 80 72 57 44 29 17 8 5 13 20
121 120 121 121 121 119 118 116 120 124 127 124 118 115 117 118 117 111 103 95 86 75 72 56 36 34 23 13 12 18 23 27
115 116 117 117 117 119 117 121 128 124 120 117 115 113 107 103 102 97 93 90 93 92 77 39 39 40 37 34 36 34 41 45
117 115 113 112 116 118 120 125 125 123 117 115 120 126 130 127 124 125 121 116 121 119 105 59 49 52 50 48 48 52 54 50
115 115 115 116 120 120 122 124 125 123 133 129 132 133 133 135 134 131 127 108 110 108 91 71 68 60 52 45 48 51 53 40
115 116 118 120 120 120 125 130 137 132 127 131 129 129 128 128 127 120 102 90 85 82 80 75 71 65 58 55 50 58 47 43
116 119 121 124 123 125 128 124 128 126 122 121 119 117 114 113 108 103 100 91 84 80 75 68 65 65 68 62 49 37 47 43
117 118 117 116 114 114 122 122 116 111 107 108 106 103 101 95 90 84 80 86 80 71 65 61 53 54 61 65 58 50 47 47
117 115 115 115 114 113 115 116 108 108 112 108 109 113 115 113 113 109 103 94 78 62 54 52 48 48 40 41 51 49 47 48
117 115 115 115 116 117 115 120 125 125 126 132 127 115 111 109 108 106 104 102 101 101 97 93 82 58 51 47 42 45 43 44
112 113 114 114 118 125 134 137 134 122 110 112 115 115 113 112 110 106 102 97 93 89 93 87 76 67 61 50 50 44 40 37
114 113 116 119 118 116 112 114 118 118 117 119 120 117 115 111 108 105 102 96 89 79 68 69 69 69 59 57 48 44 47 36
Wind_Speed_850mb
80 76 95 97 102 111 112 105 105 97 99 91 82 68 68 62 57 54 50 43 34 27 23 23 23 24 24 24 21 21 21 20
79 90 86 91 55 86 96 93 114 112 106 94 74 71 67 65 64 56 48 40 33 30 26 19 15 15 17 19 23 24 23 26
81 89 83 77 37 90 104 79 100 110 108 98 87 75 71 68 60 53 46 37 31 26 22 23 24 20 21 19 22 21 21 22
91 90 79 72 94 87 106 122 94 83 89 84 83 79 74 64 58 52 44 40 33 25 26 28 26 27 26 23 19 21 19 20
87 87 99 101 95 97 95 96 100 93 90 85 77 74 69 60 55 48 42 37 30 31 35 30 27 25 22 20 18 22 20 26
92 93 102 106 97 97 103 95 92 85 82 82 78 71 64 56 50 47 44 39 33 33 33 28 22 19 18 20 24 23 20 20
93 96 97 95 92 94 89 86 86 86 82 78 71 61 58 54 50 45 40 40 36 34 30 25 22 20 17 15 14 8 18 23
102 101 98 100 90 92 93 88 84 80 77 74 67 62 58 55 50 45 40 38 37 33 30 24 20 20 18 19 21 23 20 20
107 110 104 93 88 92 92 86 82 81 81 75 68 61 57 54 55 49 41 38 35 32 28 25 22 21 20 22 25 26 24 23
111 115 96 86 88 95 92 88 85 82 77 70 66 61 59 54 51 46 42 39 39 38 32 24 22 24 23 25 25 25 25 27
102 106 92 84 84 88 93 85 83 81 80 76 69 63 60 56 53 47 41 33 34 29 22 15 24 28 26 26 29 29 28 36
98 99 94 89 83 82 84 84 85 85 83 79 73 71 64 54 48 45 46 41 34 33 25 13 23 27 32 34 34 36 36 38
91 93 92 88 85 82 78 85 85 86 77 73 67 60 51 49 49 45 34 29 19 19 21 20 26 31 37 40 38 38 34 33
88 90 91 85 84 80 80 80 74 70 70 63 56 51 46 48 47 44 36 35 29 29 28 28 33 34 33 36 40 33 37 31
83 84 82 84 81 75 72 67 65 64 68 65 63 61 58 55 50 46 50 49 45 41 40 41 37 34 33 35 37 36 37 41
80 81 83 83 81 74 65 61 64 67 66 60 57 53 50 48 46 44 38 38 46 48 48 47 47 43 35 33 28 29 42 49
80 80 78 79 81 76 68 74 72 66 59 57 53 51 48 47 44 41 38 35 31 32 35 39 38 38 37 38 36 42 43 47
77 79 75 77 76 71 72 63 63 62 58 52 51 52 48 45 41 38 35 31 28 26 24 27 28 22 32 35 41 41 42 42
77 78 76 73 70 62 59 59 55 62 63 54 50 47 46 42 39 36 32 32 33 33 36 33 29 27 31 34 36 39 41 41
77 75 68 63 61 60 64 59 57 58 56 50 47 47 45 42 40 37 34 32 28 27 29 32 28 31 31 33 33 34 35 36
Wind_Direction_850mb
171 158 161 173 170 173 172 168 155 153 155 155 157 158 165 159 143 136 134 132 127 119 104 93 80 70 58 56 56 56 31 28
131 133 152 155 206 173 169 152 145 151 152 156 153 155 150 145 135 132 128 123 119 114 116 111 103 95 89 84 48 45 42 38
124 135 154 139 118 124 122 130 142 144 140 145 142 146 138 130 127 127 123 119 114 111 104 99 94 92 85 82 72 52 39 38
124 131 137 138 140 134 134 144 151 152 147 141 136 137 131 125 127 123 120 118 116 116 104 100 96 83 71 59 52 57 24 23
124 127 135 138 130 134 136 133 143 141 140 133 131 127 123 125 124 123 121 119 119 103 101 98 88 78 66 55 51 54 15 12
122 132 132 132 129 127 128 131 133 132 126 121 118 122 123 124 124 118 115 112 106 103 102 96 86 75 64 60 57 26 1 16
126 138 138 138 130 126 124 118 116 116 116 118 121 125 123 120 116 115 114 114 111 109 102 94 76 69 54 41 24 19 8 17
124 129 132 128 122 124 118 116 115 115 116 116 118 124 122 117 115 112 110 108 106 101 92 77 67 53 36 20 7 7 15 39
122 124 122 122 123 121 117 118 117 119 120 122 122 122 120 117 116 117 120 112 103 89 80 72 57 44 29 17 8 5 13 20
121 120 121 121 121 119 118 116 120 124 127 124 118 115 117 118 117 111 103 95 86 75 72 56 36 34 23 13 12 18 23 27
115 116 117 117 117 119 117 121 128 124 120 117 115 113 107 103 102 97 93 90 93 92 77 39 39 40 37 34 36 34 41 45
117 115 113 112 116 118 120 125 125 123 117 115 120 126 130 127 124 125 121 116 121 119 105 59 49 52 50 48 48 52 54 50
115 115 115 116 120 120 122 124 125 123 133 129 132 133 133 135 134 131 127 108 110 108 91 71 68 60 52 45 48 51 53 40
115 116 118 120 120 120 125 130 137 132 127 131 129 129 128 128 127 120 102 90 85 82 80 75 71 65 58 55 50 58 47 43
116 119 121 124 123 125 128 124 128 126 122 121 119 117 114 113 108 103 100 91 84 80 75 68 65 65 68 62 49 37 47 43
117 118 117 116 114 114 122 122 116 111 107 108 106 103 101 95 90 84 80 86 80 71 65 61 53 54 61 65 58 50 47 47
117 115 115 115 114 113 115 116 108 108 112 108 109 113 115 113 113 109 103 94 78 62 54 52 48 48 40 41 51 49 47 48
117 115 115 115 116 117 115 120 125 125 126 132 127 115 111 109 108 106 104 102 101 101 97 93 82 58 51 47 42 45 43 44
112 113 114 114 118 125 134 137 134 122 110 112 115 115 113 112 110 106 102 97 93 89 93 87 76 67 61 50 50 44 40 37
114 113 116 119 118 116 112 114 118 118 117 119 120 117 115 111 108 105 102 96 89 79 68 69 69 69 59 57 48 44 47 36